Reflectivity
4 -0 10 -5 3 19 28 28 31 29 12 6 3 -8 8 -11 -16 13 35 15 6 -14 -20 -6 -20 -20 -20 -20 -20 -20 -20 -20 -20 -20 -20 -18 -19 -19 -20 -20 -20 -20 -20 -20 -20 -20 -20 -20 -20 -20 -20 -20 -20 -20
33 28 26 28 28 33 33 28 16 9 11 18 -7 17 15 -14 6 13 11 35 17 12 -16 -1 10 11 -20 -20 -20 -20 -20 -20 -20 -20 -20 -20 -20 -20 -20 -20 -20 -20 -20 -20 -20 -20 -20 -20 -20 -20 -20 -20 -20 -20
25 17 22 23 28 28 23 14 16 19 17 18 25 18 9 8 11 -20 -18 24 37 6 -20 -16 9 19 9 -20 -20 -20 -20 -20 -20 -20 -20 -20 -20 -20 -20 -20 -20 -20 -20 -20 -20 -20 -20 -20 -20 -20 -20 -20 -20 -20
12 17 18 26 26 19 17 4 4 16 20 3 -20 -10 8 -7 -20 -19 -2 10 29 -1 -6 -19 -18 -20 -20 -20 -20 -20 -20 -20 -20 20 -8 -20 -20 -20 -20 -20 -20 -20 -20 -20 -20 -20 -20 -20 -20 -20 -20 -20 -20 -20
-20 -20 -13 -16 -11 -10 7 1 -12 -18 -13 -16 -18 -14 -20 -20 -20 -12 1 25 33 4 -20 -20 18 21 -20 -20 2 -20 -20 -20 4 -20 -8 -12 -20 -20 -11 -12 -20 -20 -20 -20 -20 6 14 -2 -20 -20 -20 -20 -20 -20
-19 -20 -20 -1 -11 -20 -20 -20 -20 -18 9 22 20 7 18 -3 19 -4 36 40 29 11 -20 -20 -19 -19 20 -1 -10 22 3 -20 -20 -20 -20 -20 -20 -4 16 -20 -20 -20 -20 -20 -20 -20 4 -18 -20 -20 -20 -20 -20 -20
-20 -20 -7 -18 8 -13 -20 -20 -20 -18 8 5 14 20 10 20 13 36 31 31 12 -19 -8 -20 -20 -20 -20 -17 -15 -11 -13 -20 -20 -20 -20 -20 -20 -1 -20 -20 -20 -20 -20 -20 -20 -20 -20 -20 -20 -20 -20 -20 -20 -20
-20 -20 9 23 13 -8 -2 10 -10 7 23 -8 -15 9 11 9 29 19 -4 -20 -20 9 5 -20 -17 -20 -20 -12 23 23 14 20 -17 -18 -20 -20 -20 -20 -20 -20 -20 -20 -20 -20 -20 -20 -20 -20 -20 -20 -20 -20 -20 -20
-20 -20 -20 1 -20 -17 24 9 21 28 20 19 32 25 22 15 -15 -19 -13 -20 -0 -20 13 -20 11 14 -9 -20 17 15 18 12 -12 16 -20 6 -20 -20 -20 -20 -20 -20 -20 -20 -20 -20 -20 -20 -20 -20 -20 -20 -20 -20
-20 -20 -20 -20 -20 -20 -20 -20 -20 -20 -20 -4 -20 2 7 18 -9 -20 -0 18 14 -18 -20 -18 -20 -20 -20 -20 -20 12 9 21 -15 -20 12 -8 -20 -20 -20 -20 -20 -20 0 3 -20 -20 -20 -20 -20 -20 -20 -20 -20 -20
-20 -20 -20 -20 -20 -20 -20 -20 -15 8 -13 -20 -20 -17 -12 5 4 37 31 13 18 7 -20 -20 -20 -20 -20 -13 21 -16 0 39 24 -18 -14 -20 -20 -20 -20 -20 -20 -13 27 8 -0 3 -19 -20 -20 -20 -20 -20 -20 -20
-20 -20 -20 -20 -20 -20 -1 10 14 18 8 2 -8 -17 13 23 25 17 0 -18 -20 -20 -17 4 8 -20 -20 -20 20 24 4 17 27 15 25 21 -19 -3 27 25 32 33 21 10 -6 15 -13 -20 -20 -20 -9 3 19 4
-6 -3 -15 -20 -20 -2 3 15 20 25 22 34 35 18 9 13 -13 -20 -20 -20 -20 -20 13 -17 -10 -11 -20 -20 32 28 23 4 19 29 24 -3 17 0 19 22 21 30 30 21 15 -6 -20 4 26 21 16 7 2 -15
-5 15 22 11 -15 7 20 31 26 31 38 24 8 -5 23 -7 -20 -20 -20 -20 -18 -11 6 1 28 28 2 26 24 27 12 22 19 18 13 7 9 6 -16 -20 -20 -20 1 15 5 2 19 27 22 13 -11 -16 -20 -20
17 17 22 26 21 22 27 29 27 34 42 30 32 15 4 17 19 15 22 26 21 16 -12 12 17 2 -20 -7 -7 -20 -20 -16 -18 -14 -12 -13 -20 -10 -20 -20 -8 9 21 26 15 5 -8 -14 -13 -15 -20 -20 -7 5
32 30 29 22 33 34 33 34 36 36 26 18 10 11 11 5 -2 -0 2 2 12 11 18 23 19 24 11 -11 -20 -20 -20 -4 -5 15 14 14 17 17 10 -4 5 2 -1 -10 -16 -14 -1 4 2 -20 -17 -1 -4 -3
31 14 24 26 25 24 28 29 29 -18 -19 -18 5 13 12 8 5 8 11 12 20 11 -1 -19 -20 2 15 15 12 -0 -5 -11 -15 -10 -17 -10 -16 -16 -15 -14 -7 9 9 1 9 11 4 -2 -20 -20 -15 -7 -3 -6
34 32 30 33 34 33 36 37 28 -15 -20 4 1 9 3 8 10 2 8 9 14 21 18 16 12 3 -18 -11 4 15 18 16 17 17 15 6 6 12 17 18 20 19 8 1 7 6 3 6 4 3 2 -7 -18 -20
-20 -20 -7 14 20 22 26 14 -2 9 10 5 5 -8 3 5 10 9 6 11 9 3 -8 3 -6 -20 -13 -4 8 14 17 16 16 17 18 20 20 18 18 19 16 11 9 9 4 -1 -5 -15 -19 -20 -20 -20 -20 -20
-20 -18 3 6 -20 -20 -20 -20 -20 -20 -5 13 6 -9 -16 3 0 2 -1 6 6 6 8 -3 4 8 10 12 16 19 18 19 19 15 16 18 19 17 15 12 8 5 -3 3 4 0 -3 -7 -18 -20 -20 -20 -20 -20
-20 -20 -20 -20 -20 -20 -20 -20 -20 -6 -20 1 -14 -20 -19 -3 -19 -20 -20 -3 -8 -3 9 13 13 14 16 19 18 17 15 17 12 9 4 3 13 8 8 8 2 0 -8 -4 -14 -1 0 1 4 -2 -15 -20 -20 -20
-20 -20 -20 -20 -20 -20 -20 -20 -20 -2 -20 -20 -20 -20 -20 -20 -20 -20 -20 -20 4 9 14 14 15 16 17 15 17 15 19 15 13 5 7 6 4 5 4 7 -7 -15 -20 -18 -20 -20 -20 -20 -20 -19 -20 -19 -20 -20
-20 -20 -20 -20 -20 -20 -20 -20 -20 -20 -20 -20 -20 -20 -20 -20 -20 -20 -20 -2 3 11 13 11 14 15 14 17 14 10 12 12 -3 -14 -12 -17 -18 -16 -20 -20 -20 -20 -20 -20 -20 -20 -20 -20 -20 -20 -20 -20 -20 -20
-20 -20 -20 -20 -20 -20 -20 -20 -20 -20 -20 -20 -20 -20 -20 -20 -20 -20 -18 -8 1 6 4 8 9 9 11 9 2 2 7 -2 -20 -20 -20 -20 -20 -20 -20 -20 -20 -20 -20 -20 -20 -20 -20 -20 -20 -20 -20 -20 -20 -20
-20 -20 -20 -20 -20 -20 -20 -20 -20 -20 -20 -20 -20 -20 -20 -20 -20 -20 -20 -20 -19 -18 -17 -14 -17 -3 -4 -1 -10 -11 -18 -20 -20 -20 -20 -20 -20 -20 -20 -20 -20 -20 -20 -20 -20 -20 -20 -20 -20 -20 -20 -20 -20 -20
-20 -20 -20 -20 -20 -20 -20 -20 -20 -20 -20 -20 -20 -20 -20 -20 -20 -20 -14 -8 -20 -20 -20 -20 -20 -20 -20 -20 -20 -20 -20 -20 -20 -20 -20 -20 -20 -20 -20 -20 -20 -20 -20 -20 -20 -20 -20 -20 -20 -20 -20 -20 -20 -20
-20 -20 -20 -20 -20 -20 -20 -20 -20 -20 -20 -20 -20 -20 -20 -20 -20 -11 -6 -20 -20 -20 -20 -20 -20 -20 -20 -20 -20 -20 -20 -20 -20 -20 -20 -20 -20 -20 -20 -20 -20 -20 -20 -20 -20 -20 -20 -20 -20 -20 -20 -20 -20 -20
-20 -20 -20 -20 -20 -20 -20 -20 -20 -20 -20 -20 -20 -20 -20 -20 -20 -20 -20 -8 -20 -20 -20 -20 -20 -20 -20 -20 -20 -20 -20 -20 -20 -20 -20 -20 -20 -20 -20 -20 -20 -20 -20 -20 -20 -20 -20 -20 -20 -20 -20 -20 -20 -20
-20 -20 -20 -20 -20 -20 -20 -20 -20 -20 -20 -20 -20 -20 -20 -20 -20 -20 -20 -20 -20 -20 -20 -20 -20 -20 -20 -20 -20 -20 -20 -20 -20 -20 -20 -20 -20 -20 -20 -20 -20 -20 -20 -20 -20 -20 -12 -20 -20 -20 -20 -20 -20 -20
-20 -20 -20 -20 -20 -20 -20 -20 -20 -20 -20 -20 -15 -18 -20 -20 -18 -19 -20 -20 -20 -20 -20 -20 -20 -20 -20 -20 -20 -20 -20 -20 -20 -20 -20 -20 -20 -20 -20 -20 -20 -20 -20 -20 -20 -20 -20 -20 -20 -20 -20 -20 -20 -20
-20 -20 -20 -20 -20 -20 -20 -20 -20 -20 -20 -20 -20 -20 -20 -20 -20 -20 -20 -20 -20 -20 -20 -20 -20 -20 -20 -20 -20 -20 -20 -20 -20 -20 -20 -20 -20 -20 -20 -20 -20 -20 -20 -20 -20 -20 -20 -20 -20 -20 -20 -20 -20 -20
-20 -20 -20 -20 -20 -20 -20 -19 -20 -20 -20 -20 -20 -20 -20 -20 -20 -20 -20 -20 -20 -20 -20 -20 -20 -20 -20 -20 -20 -20 -20 -20 -20 -20 -20 -20 -20 -20 -20 -20 -20 -20 -20 -20 -20 -20 -20 -20 -20 -20 -20 -20 -20 -20
-20 -20 -20 -20 -20 -20 -20 -20 -20 -20 -20 -20 -20 -20 -20 -20 -20 -20 -20 -20 -20 -20 -20 -20 -20 -20 -20 -20 -20 -20 -20 -20 -20 -20 -20 -20 -20 -20 -20 -20 -20 -20 -20 -20 -20 -20 -20 -20 -20 -20 -20 -20 -20 -20
Wind_Speed
22 18 19 22 28 32 34 33 32 33 33 35 35 32 26 25 24 18 4 4 1 2 4 4 6 5 6 13 7 5 5 2 3 7 5 4 4 7 4 3 7 9 8 4 4 3 7 8 5 11 9 1 6 7
27 28 27 27 29 29 29 29 30 32 32 33 31 28 24 23 23 15 3 4 2 3 1 2 6 6 5 5 11 4 6 7 7 5 2 3 2 1 5 5 1 4 7 9 11 9 3 5 4 1 4 6 7 8
22 23 24 27 25 24 25 28 29 30 28 28 26 23 22 22 23 15 4 6 2 2 4 4 4 5 5 8 4 6 3 4 4 3 5 3 3 5 5 6 2 3 3 4 4 5 5 3 3 1 1 4 6 5
19 20 22 23 25 25 25 26 24 22 20 19 22 21 21 22 23 13 4 7 5 4 2 5 4 7 5 6 6 5 2 4 6 3 2 3 4 4 4 3 5 5 6 6 3 3 2 5 4 4 5 7 12 9
18 19 19 18 18 19 21 21 22 22 22 21 22 23 23 21 23 12 3 5 7 5 4 4 5 10 7 7 11 9 9 4 2 3 3 4 2 5 1 1 3 6 8 7 8 7 5 5 9 7 9 7 8 16
16 17 18 19 19 19 19 19 19 20 19 20 25 22 28 23 23 7 5 7 5 4 3 2 4 4 4 3 9 11 10 4 4 5 4 3 1 5 5 5 5 6 7 6 4 9 4 10 8 4 11 9 10 11
16 16 18 18 15 18 19 19 17 17 18 23 24 25 26 24 13 5 5 7 5 4 1 4 5 3 3 2 2 2 2 2 3 4 3 3 1 3 2 5 3 2 4 4 13 15 7 4 7 10 14 14 15 14
16 16 19 17 21 22 20 18 18 15 19 26 22 20 23 26 4 3 2 9 6 5 2 1 4 5 3 1 3 1 3 1 3 3 2 3 2 1 5 2 4 4 7 8 4 6 8 16 16 14 14 15 16 14
17 17 18 20 19 17 19 20 16 22 29 34 28 26 8 3 2 3 6 14 1 3 4 3 3 3 3 1 1 2 2 3 1 2 2 4 2 7 4 4 8 5 3 11 12 13 15 17 16 15 15 14 18 14
16 17 19 20 20 19 19 18 20 23 28 27 9 4 3 5 9 11 2 5 4 2 1 3 1 3 2 2 2 2 2 2 3 3 3 3 4 1 2 4 9 10 12 14 17 10 15 15 15 13 13 12 14 14
14 16 16 15 17 21 19 16 16 17 7 3 3 3 2 16 3 2 3 5 4 4 4 4 6 3 2 2 1 1 2 1 3 4 4 2 4 4 6 8 7 10 8 5 11 11 9 14 17 17 14 13 13 14
19 17 15 15 14 13 15 16 15 4 1 2 2 5 3 2 3 4 3 2 4 6 2 3 3 4 2 2 3 3 3 2 4 1 4 4 2 4 8 14 12 9 7 11 12 16 15 15 15 15 14 13 11 13
15 15 16 14 13 13 12 9 5 9 6 3 3 4 2 1 3 4 5 2 3 3 2 2 2 2 2 2 3 2 2 3 1 2 2 1 1 5 8 10 13 11 14 15 16 16 17 15 14 15 15 12 14 12
12 10 9 9 10 11 11 10 7 4 4 3 2 5 3 3 3 2 2 1 2 1 1 1 3 1 1 3 2 2 1 1 3 1 4 1 4 8 8 9 14 14 14 15 16 15 15 16 15 12 12 12 13 12
15 14 14 13 10 10 9 9 8 2 1 2 4 5 4 1 1 2 1 2 3 1 2 2 2 2 3 4 1 2 2 2 2 3 2 2 6 9 9 10 12 13 12 13 13 14 15 15 15 14 11 11 11 11
16 15 7 13 17 16 17 13 4 2 4 4 7 5 5 4 6 5 6 3 4 3 1 2 3 3 3 2 4 3 2 2 2 2 1 5 7 8 9 9 10 11 12 13 12 13 14 13 13 13 12 11 10 9
10 4 8 21 24 21 15 5 3 5 4 5 4 6 4 3 4 4 5 5 4 1 3 2 5 4 2 4 4 4 3 3 3 2 3 5 9 10 11 12 12 13 14 14 14 13 13 13 12 12 13 10 10 9
6 3 11 23 16 11 4 3 2 6 8 5 4 7 7 5 5 5 5 7 4 3 3 5 4 7 5 5 4 4 3 4 6 6 6 8 11 11 11 13 12 13 14 13 13 12 12 11 11 8 11 10 9 8
7 5 9 16 6 5 5 5 4 6 7 4 4 5 4 7 9 7 8 8 7 6 5 5 7 5 4 4 6 8 3 3 5 7 9 11 10 12 13 13 13 13 13 12 11 8 8 11 8 6 6 5 5 4
7 19 14 7 3 5 7 5 4 6 5 4 2 8 7 7 8 9 11 10 9 7 8 8 6 5 5 6 6 5 5 4 5 9 9 9 9 13 12 10 9 12 11 12 11 10 9 9 8 7 6 5 4 4
9 9 13 7 6 8 6 3 5 3 4 4 2 2 4 6 13 13 12 9 11 7 6 5 5 6 8 8 7 8 11 10 10 7 6 8 9 10 10 10 11 9 9 8 8 8 9 7 6 6 5 4 3 3
3 9 5 8 7 6 6 6 3 2 4 2 3 3 3 4 4 7 5 10 7 5 5 6 8 6 9 14 12 13 12 14 14 12 14 12 10 9 10 8 9 10 9 8 8 7 7 6 5 5 5 3 3 3
4 7 7 8 9 8 3 3 6 5 5 2 3 4 4 4 4 4 6 6 5 6 7 6 7 10 11 12 15 17 15 14 12 11 11 10 10 10 10 11 9 9 8 8 7 7 6 7 6 5 4 4 4 3
8 9 8 7 7 2 4 7 4 4 5 5 4 4 4 3 3 5 5 3 5 8 9 11 8 7 9 15 13 12 11 9 11 11 10 9 10 10 10 9 9 8 7 6 6 6 5 5 5 5 4 3 4 3
12 10 8 8 5 8 7 6 6 6 4 3 4 4 4 4 5 5 3 3 5 7 7 8 8 9 8 8 8 9 13 9 9 10 9 7 7 7 8 8 8 8 6 6 6 5 4 4 4 4 4 4 4 5
11 7 6 4 4 5 2 4 4 3 3 4 4 3 4 5 6 4 3 2 3 5 5 6 6 6 8 8 7 7 7 6 7 11 8 8 8 6 6 6 5 5 5 3 3 4 4 3 3 5 4 5 4 3
9 6 3 3 2 4 5 3 3 5 5 4 3 4 5 6 3 3 3 3 3 4 5 6 5 6 6 6 6 6 7 8 9 8 6 7 8 7 6 4 4 4 4 4 3 1 2 3 3 3 4 3 4 4
5 5 5 6 5 3 5 4 5 4 3 4 4 6 5 4 2 3 3 4 5 5 6 6 6 6 6 6 5 4 4 3 3 3 4 6 6 6 6 4 5 8 4 4 3 2 2 3 4 3 3 4 5 3
5 4 4 7 6 6 6 3 2 3 5 2 5 3 3 3 2 2 4 3 4 4 4 4 4 3 4 5 6 6 5 4 6 7 6 3 4 4 4 3 3 4 4 4 8 7 8 5 4 2 4 3 4 3
4 3 6 4 6 5 3 2 2 3 4 2 4 4 4 3 4 4 4 4 4 3 1 2 1 3 2 3 2 5 4 3 3 5 4 1 3 3 2 3 3 3 3 3 4 5 7 5 6 5 5 5 3 3
1 4 5 4 4 1 3 3 3 4 4 5 4 5 3 3 2 3 3 2 2 2 3 3 4 2 4 3 3 3 3 3 3 2 1 1 1 2 3 3 2 1 2 2 2 2 3 3 4 4 6 7 7 5
5 4 5 4 2 1 1 1 2 4 1 4 2 2 4 4 2 2 2 3 3 4 1 2 2 1 2 2 1 1 2 2 2 2 2 2 2 3 3 3 2 2 2 2 2 2 2 3 3 3 4 6 6 6
4 3 4 4 3 2 2 3 4 2 4 2 0 2 2 4 4 4 1 2 4 3 3 3 3 3 3 3 3 1 2 2 3 3 2 1 1 2 2 2 2 2 3 3 3 2 3 3 3 4 5 6 6 5
Wind_Direction
84 105 121 131 136 136 139 144 151 160 160 159 163 168 170 177 181 184 166 206 262 85 315 359 343 151 142 188 171 200 113 220 88 181 158 209 175 209 138 201 185 160 146 168 85 66 274 169 90 166 212 334 152 141
79 82 94 102 112 125 139 149 153 153 153 159 162 169 168 170 175 161 142 140 217 160 338 287 248 234 230 178 177 221 175 169 182 149 180 105 205 75 153 218 126 237 182 179 177 210 214 223 202 244 171 159 166 133
76 88 94 104 114 124 138 140 140 145 149 155 159 158 161 162 166 168 151 163 125 71 320 330 274 246 192 217 196 162 271 180 174 161 163 168 189 128 156 232 162 233 158 147 103 211 220 243 271 242 115 141 125 112
90 93 96 102 109 113 116 119 123 132 146 153 160 162 166 169 172 157 146 172 239 119 176 266 297 255 222 190 177 196 168 35 99 98 132 157 153 175 203 200 179 195 136 143 279 269 291 238 225 161 101 95 98 79
94 98 104 108 111 116 125 136 144 150 158 165 169 171 168 168 171 167 167 243 229 160 169 254 293 250 242 210 194 194 206 143 132 103 127 222 157 117 197 36 241 188 170 169 217 199 175 196 146 136 120 112 114 117
98 104 106 113 119 124 133 137 144 151 155 162 162 155 154 148 160 136 189 219 219 131 68 352 275 270 244 228 200 194 195 166 152 154 212 250 255 144 172 202 244 197 199 175 200 135 63 112 97 77 111 110 102 105
106 107 111 107 111 126 124 126 134 144 154 160 159 150 153 169 163 212 181 164 161 100 79 331 316 255 302 79 47 114 97 157 142 149 176 173 200 152 126 213 234 61 93 91 118 112 75 187 148 115 111 106 100 95
116 116 119 127 117 119 119 114 123 144 180 176 164 167 161 165 196 94 346 132 116 92 108 133 274 327 0 25 197 360 104 108 9 140 68 138 56 59 245 207 108 103 108 109 45 40 113 114 111 113 117 120 109 110
127 123 117 127 139 139 137 144 150 117 109 117 121 113 85 50 117 233 190 139 87 135 171 169 234 216 343 15 339 56 78 88 330 151 198 127 177 219 216 161 141 161 263 134 96 104 114 116 122 125 124 123 117 121
130 128 130 134 134 132 131 129 126 125 127 127 115 118 115 194 161 121 134 128 194 278 164 207 196 294 14 39 353 27 24 166 155 229 164 155 239 161 201 185 133 132 139 125 115 124 127 126 131 130 129 125 125 127
135 135 137 141 146 147 139 125 113 116 90 40 96 89 132 155 88 167 149 165 149 181 200 208 178 168 275 116 199 195 151 299 181 205 163 217 263 195 153 131 139 129 146 173 107 116 124 133 136 131 125 121 120 119
137 137 137 137 133 121 117 120 127 67 332 323 86 99 131 171 178 176 136 117 173 196 179 176 192 169 178 170 82 267 145 109 256 141 123 233 303 129 151 140 121 114 141 104 120 120 122 121 120 113 110 107 99 105
140 144 146 147 144 130 121 137 193 1 25 296 123 90 214 337 146 160 158 159 172 169 188 173 141 143 101 50 94 267 145 199 135 325 243 313 27 115 121 110 102 118 114 111 106 105 105 105 109 117 116 113 115 107
139 147 153 155 147 137 136 138 145 23 294 329 59 87 28 41 51 14 11 73 123 181 189 141 77 142 137 96 135 106 274 47 63 289 257 349 87 103 101 105 114 110 109 109 106 106 110 110 106 102 105 114 116 116
171 185 205 212 200 178 146 128 107 47 351 60 27 47 50 345 6 342 357 47 2 354 32 57 86 70 27 92 27 122 81 92 115 240 301 56 106 113 109 112 113 110 108 106 111 109 107 104 104 102 97 100 101 102
104 79 24 143 133 139 128 86 55 32 27 57 33 13 356 24 16 11 1 13 11 347 359 35 78 66 44 78 53 39 97 56 359 333 51 102 93 95 100 97 97 100 105 105 103 102 101 103 106 101 92 90 91 101
91 56 3 125 111 97 90 77 48 53 58 44 38 11 360 33 24 358 339 337 307 6 58 33 49 27 16 55 45 20 24 333 309 50 60 83 104 101 96 92 92 95 97 99 103 98 94 96 100 99 105 109 106 97
62 356 117 127 112 74 52 56 70 64 59 27 46 26 44 27 6 16 344 348 7 45 39 49 16 35 29 26 28 349 359 14 37 48 63 78 86 86 89 95 94 95 95 93 91 97 102 108 108 107 116 117 111 109
69 78 123 181 164 114 94 34 42 78 43 53 20 8 35 33 19 11 15 14 28 42 72 49 46 31 357 1 328 318 353 30 74 64 58 59 73 83 86 84 85 87 87 89 89 85 82 76 83 87 95 107 103 97
64 42 37 61 119 75 66 33 42 71 45 93 87 48 52 38 17 30 33 26 34 55 41 46 22 353 334 319 306 327 18 56 87 80 61 50 51 65 65 77 79 84 82 79 73 74 79 70 56 56 57 64 91 87
33 348 10 38 53 62 75 37 55 71 108 100 192 56 73 50 41 34 33 7 46 40 54 22 4 359 358 7 14 33 41 47 49 58 75 70 53 63 65 63 68 69 73 72 75 68 65 70 68 60 56 54 62 68
347 15 48 23 69 56 66 19 79 69 64 69 53 48 65 45 29 28 37 35 54 20 6 7 9 6 18 29 30 38 46 57 57 57 54 57 55 53 51 53 66 67 62 60 64 67 64 60 59 56 53 42 50 46
25 39 42 29 63 52 306 11 60 17 64 14 30 45 35 45 44 39 63 33 40 359 0 3 20 26 35 33 40 41 39 52 58 56 57 60 60 55 55 49 47 62 64 51 52 59 58 51 47 42 28 31 25 16
39 53 49 46 45 55 12 21 22 39 36 27 49 54 54 69 59 58 67 40 1 355 12 20 15 33 36 38 39 31 28 44 60 55 48 61 65 55 54 56 52 49 47 56 52 48 43 38 32 34 24 23 18 6
64 6 64 8 356 52 36 19 4 43 46 10 65 45 25 35 67 67 67 19 0 3 1 15 35 34 42 43 38 37 31 38 57 63 31 50 75 80 69 63 57 47 34 52 42 42 36 32 28 26 23 23 11 349
70 357 42 33 2 62 47 61 39 25 43 47 28 51 45 68 64 59 57 47 4 3 2 9 24 44 47 35 38 29 23 32 64 68 42 34 39 57 63 61 54 48 25 42 69 43 14 2 4 4 346 331 323 342
56 17 346 31 36 79 53 35 51 65 49 32 355 35 58 67 82 75 91 24 50 24 31 25 39 56 60 52 45 36 42 49 66 79 74 55 50 46 51 58 33 3 11 31 36 65 307 311 308 294 287 296 260 239
62 46 61 319 46 24 91 51 46 33 10 12 64 39 98 138 95 27 35 91 93 83 67 52 46 53 62 52 35 35 43 40 62 75 73 58 45 45 32 26 23 26 15 6 344 346 272 260 271 270 265 271 288 270
43 337 71 23 36 43 43 62 49 25 338 47 102 91 89 64 345 0 34 52 64 78 73 69 32 20 51 60 50 37 28 37 70 62 53 2 353 341 5 6 1 360 0 353 341 351 350 21 352 291 298 280 290 303
349 25 85 48 62 53 322 60 49 308 6 71 94 92 64 51 14 21 49 51 68 81 102 99 357 69 93 81 33 22 20 34 75 121 135 220 246 289 328 335 332 328 344 20 6 341 1 20 1 5 2 347 341 336
359 66 70 58 79 83 147 179 100 82 42 42 30 87 114 140 13 24 45 37 83 76 66 36 31 24 81 55 95 73 354 326 14 16 311 244 259 283 291 292 284 311 21 36 28 24 11 8 9 356 350 345 345 350
30 62 114 96 101 267 333 50 101 92 29 62 6 48 22 51 43 305 333 68 44 44 318 149 121 287 226 211 211 225 194 271 318 326 3 14 346 297 298 315 342 23 41 31 18 17 26 15 350 349 339 338 339 344
55 49 52 84 77 171 254 72 43 65 37 69 37 129 134 142 175 238 322 84 151 184 228 222 218 206 180 167 150 284 306 256 275 303 325 18 356 340 348 358 15 46 60 45 27 21 9 358 336 332 334 331 318 319